This demonstration page uses our WeatherBlox Daily Observations layout. Learn more.

Left ArrowRight Arrow

Hourly Observations for September 7, 2018

Temp ( °F °C ) Dew Point ( °F °C ) Humidity (%) Winds ( mph kmh ) Pressure ( in mb ) Visibility ( mi km ) Precip ( " mm )
12:15 am 00:15 Mostly Cloudy 75 24 72 22 89 89 NNW 3 6 30.18 1022 10 16 0.00 0.00
12:35 am 00:35 Partly Cloudy 75 24 72 22 89 89 NNE 5 7 30.15 1021 10 16 0.00 0.00
12:55 am 00:55 Clear 75 24 72 22 89 89 N 5 7 30.15 1021 10 16 0.00 0.00
1:15 am 01:15 Clear 75 24 72 22 89 89 N 7 11 30.15 1021 10 16 0.00 0.00
1:35 am 01:35 Clear 73 23 72 22 94 94 N 3 6 30.15 1021 10 16 0.00 0.00
1:55 am 01:55 Partly Cloudy 73 23 72 22 94 94 N 3 6 30.15 1021 10 16 0.00 0.00
2:15 am 02:15 Clear 73 23 70 21 89 89 N 5 7 30.15 1021 10 16 0.00 0.00
2:35 am 02:35 Clear 73 23 70 21 89 89 N 3 6 30.15 1021 10 16 0.00 0.00
2:55 am 02:55 Clear 73 23 70 21 89 89 NNE 3 6 30.15 1021 10 16 0.00 0.00
3:15 am 03:15 Clear 73 23 70 21 89 89 N 3 6 30.15 1021 10 16 0.00 0.00
3:35 am 03:35 Clear 73 23 70 21 89 89 N 3 6 30.15 1021 10 16 0.00 0.00
3:55 am 03:55 Clear 73 23 70 21 89 89 N 3 6 30.15 1021 10 16 0.00 0.00
4:15 am 04:15 Clear 72 22 70 21 94 94 N 3 6 30.15 1021 10 16 0.00 0.00
4:35 am 04:35 Clear 72 22 70 21 94 94 Calm 30.15 1021 10 16 0.00 0.00
4:55 am 04:55 Clear 72 22 70 21 94 94 Calm 30.15 1021 10 16 0.00 0.00
5:15 am 05:15 Clear 72 22 70 21 94 94 NNE 5 7 30.15 1021 10 16 0.00 0.00
5:35 am 05:35 Clear 72 22 70 21 94 94 NNE 5 7 30.15 1021 10 16 0.00 0.00
5:55 am 05:55 Clear 72 22 70 21 94 94 NNE 3 6 30.15 1021 10 16 0.00 0.00
6:15 am 06:15 Clear 72 22 70 21 94 94 NNE 3 6 30.15 1021 10 16 0.00 0.00
6:35 am 06:35 Clear 72 22 70 21 94 94 Calm 30.15 1021 10 16 0.00 0.00
6:55 am 06:55 Sunny 72 22 70 21 94 94 N 5 7 30.15 1021 10 16 0.00 0.00
7:15 am 07:15 Sunny 70 21 70 21 100 100 Calm 30.15 1021 10 16 0.00 0.00
7:35 am 07:35 Sunny 72 22 70 21 94 94 N 5 7 30.15 1021 10 16 0.00 0.00
7:55 am 07:55 Sunny 72 22 70 21 94 94 NNE 5 7 30.15 1021 10 16 0.00 0.00
8:15 am 08:15 Sunny 72 22 70 21 94 94 NNE 5 7 30.15 1021 10 16 0.00 0.00
8:35 am 08:35 Sunny 73 23 70 21 89 89 NNE 8 13 30.15 1021 10 16 0.00 0.00
8:55 am 08:55 Sunny 73 23 70 21 89 89 NE 7 11 30.15 1021 10 16 0.00 0.00
9:15 am 09:15 Sunny 75 24 72 22 89 89 N 7 11 30.15 1021 10 16 0.00 0.00
9:35 am 09:35 Sunny 77 25 72 22 83 83 NNE 5 7 30.15 1021 10 16 0.00 0.00
9:55 am 09:55 Sunny 77 25 72 22 83 83 NNE 6 9 30.15 1021 10 16 0.00 0.00
10:15 am 10:15 Partly Cloudy 79 26 72 22 79 79 NE 5 7 30.15 1021 10 16 0.00 0.00
10:35 am 10:35 Sunny 79 26 72 22 79 79 NE 6 9 30.15 1021 10 16 0.00 0.00
10:55 am 10:55 Sunny 81 27 72 22 74 74 NNE 6 9 30.15 1021 10 16 0.00 0.00
11:15 am 11:15 Sunny 81 27 72 22 74 74 NE 3 6 30.15 1021 10 16 0.00 0.00
11:35 am 11:35 Sunny 82 28 72 22 70 70 NNE 5 7 30.15 1021 10 16 0.00 0.00
11:55 am 11:55 Mostly Cloudy 82 28 72 22 70 70 N 3 6 30.15 1021 10 16 0.00 0.00
12:15 pm 12:15 Mostly Cloudy 82 28 72 22 70 70 Calm 30.15 1021 10 16 0.00 0.00
12:35 pm 12:35 Partly Cloudy 84 29 73 23 70 70 N 5 7 30.15 1021 10 16 0.00 0.00
12:55 pm 12:55 Sunny 86 30 73 23 66 66 Calm 30.15 1021 10 16 0.00 0.00
1:15 pm 13:15 Sunny 84 29 73 23 70 70 NNE 3 6 30.12 1020 10 16 0.00 0.00
1:35 pm 13:35 Partly Cloudy 84 29 72 22 66 66 NE 3 6 30.12 1020 10 16 0.00 0.00
1:55 pm 13:55 Mostly Cloudy 84 29 73 23 70 70 Calm 30.12 1020 10 16 0.00 0.00
2:15 pm 14:15 Cloudy 86 30 70 21 59 59 Calm 30.12 1020 10 16 0.00 0.00
2:35 pm 14:35 Mostly Cloudy 86 30 73 23 66 66 Calm 30.09 1019 10 16 0.00 0.00
2:55 pm 14:55 Mostly Cloudy 86 30 73 23 66 66 NE 5 7 30.09 1019 7 11 0.00 0.00
3:15 pm 15:15 Mostly Cloudy 86 30 73 23 66 66 ENE 3 6 30.09 1019 10 16 0.00 0.00
3:35 pm 15:35 Mostly Cloudy 86 30 73 23 66 66 NE 5 7 30.09 1019 10 16 0.00 0.00
3:55 pm 15:55 Mostly Cloudy 86 30 73 23 66 66 NE 5 7 30.06 1018 10 16 0.00 0.00
4:15 pm 16:15 Partly Cloudy 86 30 73 23 66 66 Calm 30.06 1018 10 16 0.00 0.00
4:35 pm 16:35 Sunny 86 30 72 22 62 62 ENE 3 6 30.06 1018 10 16 0.00 0.00
4:55 pm 16:55 Sunny 86 30 72 22 62 62 Calm 30.06 1018 10 16 0.00 0.00
5:15 pm 17:15 Sunny 86 30 72 22 62 62 Calm 30.06 1018 10 16 0.00 0.00
5:35 pm 17:35 Sunny with Nearby Thunderstorms 86 30 73 23 66 66 W 3 6 30.06 1018 10 16 0.00 0.00
5:55 pm 17:55 Sunny 84 29 73 23 70 70 WNW 3 6 30.06 1018 10 16 0.00 0.00
6:15 pm 18:15 Sunny 84 29 73 23 70 70 N 5 7 30.06 1018 10 16 0.00 0.00
6:35 pm 18:35 Mostly Cloudy 82 28 75 24 79 79 NNW 5 7 30.06 1018 10 16 0.00 0.00
6:55 pm 18:55 Cloudy 82 28 75 24 79 79 Calm 30.06 1018 10 16 0.00 0.00
7:15 pm 19:15 Cloudy with Strong Thunderstorms 77 25 73 23 89 89 NE 10 17 30.06 1018 4 6 0.05 1.27
7:35 pm 19:35 Cloudy with Thunderstorms 73 23 73 23 100 100 NE 10 17 30.09 1019 10 16 0.09 2.29
7:55 pm 19:55 Cloudy with Thunderstorms 73 23 72 22 94 94 N 13 20 30.12 1020 10 16 0.10 2.54
8:15 pm 20:15 Cloudy with Strong Thunderstorms 73 23 72 22 94 94 NNE 10 17 30.12 1020 5 8 0.01 0.25
8:35 pm 20:35 Cloudy with Light Rain 72 22 72 22 100 100 NNE 13 20 30.12 1020 7 11 0.02 0.51
8:55 pm 20:55 Partly Cloudy 70 21 70 21 100 100 N 8 13 30.12 1020 10 16 0.03 0.76
9:15 pm 21:15 Partly Cloudy 70 21 70 21 100 100 ENE 5 7 30.12 1020 10 16 0.01 0.25
9:35 pm 21:35 Mostly Cloudy 70 21 70 21 100 100 Calm 30.12 1020 10 16 0.02 0.51
9:55 pm 21:55 Mostly Cloudy with Light Rain 70 21 70 21 100 100 Calm 30.12 1020 10 16 0.02 0.51
10:15 pm 22:15 Partly Cloudy with Light Rain 70 21 70 21 100 100 Calm 30.09 1019 10 16 0.01 0.25
10:35 pm 22:35 Clear with Drizzle 70 21 70 21 100 100 Calm 30.09 1019 10 16 0.01 0.25
10:55 pm 22:55 Clear 70 21 70 21 100 100 Calm 30.09 1019 10 16 0.02 0.51
11:15 pm 23:15 Clear 70 21 70 21 100 100 NW 3 6 30.09 1019 10 16 0.00 0.00
11:35 pm 23:35 Clear 68 20 68 20 100 100 Calm 30.09 1019 10 16 0.00 0.00
11:55 pm 23:55 Clear 68 20 68 20 100 100 WNW 3 6 30.09 1019 10 16 0.00 0.00

Powered by AerisWeather